Location: Newark
(43.0000°N, 1.6781°W)
Time: 15:47:53
(UTC+00:00)

Transit 2A Rocket - Pass Details

Date: 28 April 2021
Orbit: 594 x 909 km, 66.7° (Epoch: 10 May)

Event Time Altitude Azimuth Distance (km) Brightness Sun altitude
Rises 20:34:02 0° 341° (NNW) 2,885 9.0 -15.1°
Reaches altitude 10° 20:36:56 10° 1° (N) 2,012 7.7 -15.5°
Maximum altitude 20:40:01 18° 44° (NE) 1,603 6.6 -16.0°
Enters shadow 20:42:12 14° 76° (ENE) 1,864 6.7 -16.3°
